Lumberton, NC

10:49 AM EDT on May 26, 2017 (GMT -0400)
Lumberton Municipal

Weather History for KLBT - March, 2011

Change the Weather History Date:

Wednesday, March 2, 2011

  Actual Average Record
Temperature  
Mean Temperature 47 °F 50 °F  
Max Temperature 65 °F 62 °F 77 °F (2004)
Min Temperature 28 °F 39 °F 27 °F (2005)
Degree Days  
Heating Degree Days 18 15  
Month to date heating degree days 34 30  
Since 1 July heating degree days 2538 2260  
Cooling Degree Days 0 0  
Month to date cooling degree days 0 0  
Year to date cooling degree days 9 3  
Moisture  
Dew Point 32 °F    
Average Humidity 61    
Maximum Humidity 92    
Minimum Humidity 30    
Precipitation  
Precipitation 0.00 in 0.12 in 0.94 in (2002)
Month to date precipitation 0.02 0.23  
Year to date precipitation 4.68 6.10  
Sea Level Pressure  
Sea Level Pressure 30.26 in    
Wind  
Wind Speed 2 mph (WSW)    
Max Wind Speed 13 mph    
Max Gust Speed 23 mph    
Visibility 10 miles    
Events      
T = Trace of Precipitation, MM = Missing Value Source: NWS Daily Summary

Daily Weather History Graph

Daily Weather History Graph

Search for Another Location

Airport or City:

Trip Planner

Search our weather history database for the weather conditions in past years. The results will help you decide how hot, cold, wet, or windy it might be!

Date:

Astronomy

Mar. 02, 2011 Rise Set
Actual Time 6:44 AM EST 6:12 PM EST
Civil Twilight 6:19 AM EST 6:38 PM EST
Nautical Twilight 5:50 AM EST 7:07 PM EST
Astronomical Twilight 5:20 AM EST 7:36 PM EST
Moon 5:18 AM EST (3/2) 4:29 PM EST (3/2)
Length of Visible Light 12h 18m
Length of Day
11h 28m
Waning Crescent, 4% of the Moon is Illuminated
Mar 2
Waning Crescent
Mar 4
New
Mar 12
First Quarter
Mar 19
Full
Mar 26
Last Quarter

Hourly Weather History & Observations

Time (EST) Temp. Windchill Dew Point Humidity Pressure Visibility Wind Dir Wind Speed Gust Speed Precip Events Conditions
12:54 AM 39.9 °F 37.8 °F 28.0 °F 63% 30.32 in 10.0 mi East 3.5 mph - N/A   Clear
1:54 AM 37.9 °F - 28.9 °F 70% 30.31 in 10.0 mi Calm Calm - N/A   Clear
2:54 AM 37.0 °F 34.5 °F 28.0 °F 70% 30.30 in 10.0 mi ENE 3.5 mph - N/A   Clear
3:54 AM 34.0 °F - 28.0 °F 79% 30.30 in 10.0 mi Calm Calm - N/A   Clear
4:54 AM 30.9 °F - 28.9 °F 92% 30.29 in 10.0 mi Calm Calm - N/A   Clear
5:54 AM 30.0 °F - 28.0 °F 92% 30.29 in 10.0 mi Calm Calm - N/A   Clear
6:54 AM 28.9 °F - 27.0 °F 92% 30.31 in 10.0 mi Calm Calm - N/A   Clear
8:54 AM 39.9 °F - 33.1 °F 77% 30.34 in 10.0 mi Calm Calm - N/A   Clear
9:54 AM 48.0 °F - 34.0 °F 58% 30.33 in 10.0 mi Calm Calm - N/A   Clear
10:54 AM 55.0 °F - 30.9 °F 40% 30.32 in 10.0 mi Calm Calm - N/A   Clear
11:54 AM 57.0 °F - 26.1 °F 30% 30.30 in 10.0 mi SW 5.8 mph - N/A   Clear
12:54 PM 61.0 °F - 30.0 °F 31% 30.25 in 10.0 mi SW 5.8 mph - N/A   Clear
1:54 PM 63.0 °F - 34.0 °F 34% 30.22 in 10.0 mi WSW 5.8 mph - N/A   Clear
2:54 PM 64.0 °F - 32.0 °F 30% 30.20 in 10.0 mi Variable 6.9 mph - N/A   Clear
3:54 PM 64.0 °F - 34.0 °F 33% 30.19 in 7.0 mi Variable 5.8 mph - N/A   Clear
4:54 PM 63.0 °F - 35.1 °F 35% 30.18 in 10.0 mi West 8.1 mph - N/A   Clear
5:54 PM 60.1 °F - 33.1 °F 36% 30.19 in 10.0 mi West 3.5 mph - N/A   Clear
6:54 PM 53.1 °F - 35.1 °F 50% 30.21 in 10.0 mi Calm Calm - N/A   Clear
7:54 PM 50.0 °F - 37.0 °F 61% 30.22 in 10.0 mi Calm Calm - N/A   Clear
8:54 PM 46.0 °F - 37.0 °F 71% 30.24 in 10.0 mi Calm Calm - N/A   Clear
9:54 PM 44.1 °F - 37.0 °F 76% 30.25 in 10.0 mi Calm Calm - N/A   Clear
10:54 PM 43.0 °F - 37.0 °F 80% 30.26 in 10.0 mi Calm Calm - N/A   Clear
11:54 PM 41.0 °F - 37.0 °F 86% 30.27 in 10.0 mi Calm Calm - N/A   Clear